This is the latest recevied weather packets stored in our database for station/object N3WMC. If no packets are shown the sender has not sent any weather packets the latest 10 day(s).
| Time | Temp. | Humidity | Pressure | Rain* | Wind** | Luminosity | Snow |
|---|---|---|---|---|---|---|---|
| 1787519302 | 23.33° C | 56% | 1013.8 hPa | 0 mm | - | 240 W/m² | - |
| 1787518998 | 23.33° C | 54% | 1013.9 hPa | 0 mm | - | 271 W/m² | - |
| 1787518692 | 22.22° C | 57% | 1013.8 hPa | 0 mm | - | 163 W/m² | - |
| 1787518387 | 22.22° C | 55% | 1013.8 hPa | 0 mm | - | 128 W/m² | - |
| 1787518083 | 22.22° C | 55% | 1013.8 hPa | 0 mm | - | 137 W/m² | - |
| 1787517779 | 22.78° C | 55% | 1013.9 hPa | 0 mm | - | 136 W/m² | - |
| 1787517475 | 22.78° C | 56% | 1013.6 hPa | 0 mm | - | 113 W/m² | - |
| 1787517171 | 23.33° C | 54% | 1013.8 hPa | 0 mm | - | 280 W/m² | - |
| 1787516864 | 23.89° C | 54% | 1013.8 hPa | 0 mm | - | 234 W/m² | - |
| 1787516560 | 23.33° C | 54% | 1013.5 hPa | 0 mm | - | 353 W/m² | - |
| 1787516260 | 23.33° C | 51% | 1013.8 hPa | 0 mm | - | 357 W/m² | - |
| 1787515955 | 22.78° C | 54% | 1013.8 hPa | 0 mm | - | 130 W/m² | - |
| 1787515651 | 23.89° C | 54% | 1013.9 hPa | 0 mm | - | 168 W/m² | - |
| 1787515345 | 23.33° C | 53% | 1013.6 hPa | 0 mm | - | 409 W/m² | - |
| 1787515040 | 23.89° C | 53% | 1013.7 hPa | 0 mm | - | 438 W/m² | - |
| 1787514738 | 23.33° C | 55% | 1013.7 hPa | 0 mm | - | 511 W/m² | - |
| 1787514433 | 23.33° C | 54% | 1013.8 hPa | 0 mm | - | 454 W/m² | - |
| 1787514127 | 23.89° C | 53% | 1013.7 hPa | 0 mm | - | 487 W/m² | - |
| 1787513822 | 23.33° C | 54% | 1013.6 hPa | 0 mm | - | 206 W/m² | - |
| 1787513518 | 23.89° C | 54% | 1013.5 hPa | 0 mm | - | 484 W/m² | - |
| 1787513214 | 23.89° C | 53% | 1013.6 hPa | 0 mm | - | 524 W/m² | - |
| 1787512910 | 23.89° C | 52% | 1013.2 hPa | 0 mm | - | 166 W/m² | - |
| 1787512606 | 23.89° C | 53% | 1013.6 hPa | 0 mm | - | 361 W/m² | - |
| 1787512301 | 24.44° C | 52% | 1013.7 hPa | 0 mm | - | 525 W/m² | - |
| 1787511996 | 24.44° C | 53% | 1013.5 hPa | 0 mm | - | 536 W/m² | - |
* Rain latest hour (hover to see other rain measurements)
** Current wind speed in m/s (hover to see current wind gust speed)